FW9176 Weather Reports


time (UTC)temp
C
wind
direction
speed
KPH
gust
KPH
rain 1hr
cm
rain 24hr
cm
rain mn
cm
humidity
%
barometer
mb
20260904051601 27 170 0.0 3.2 0.00 0.00 0.00 77 1011.2
20260904050059 27 164 0.0 1.6 0.00 0.00 0.00 77 1011.0
20260904044604 27 0 0.0 1.6 0.00 0.00 0.00 77 1011.0
20260904043105 27 0 0.0 0.0 0.00 0.00 0.00 77 1011.2
20260904041608 27 0 0.0 1.6 0.00 0.00 0.00 76 1011.3
20260904034558 28 0 0.0 0.0 0.00 0.00 0.00 76 1011.3
20260904033101 28 0 0.0 3.2 0.00 0.00 0.00 76 1011.3
20260904031605 28 0 0.0 0.0 0.00 0.00 0.00 75 1011.4
20260904030103 28 0 0.0 1.6 0.00 0.00 0.00 75 1011.3
20260904024604 28 0 0.0 1.6 0.00 0.00 0.00 74 1011.3
20260904023102 28 0 0.0 0.0 0.00 0.00 0.00 75 1011.4
20260904021555 28 0 0.0 0.0 0.00 0.00 0.00 74 1011.3
20260904020105 28 0 0.0 0.0 0.00 0.00 0.00 74 1011.1
20260904014620 28 0 0.0 0.0 0.00 0.00 0.00 73 1011.1
20260904013121 28 0 0.0 1.6 0.00 0.00 0.00 72 1011.0
20260904011603 28 0 0.0 1.6 0.00 0.00 0.00 72 1010.7
20260904010115 28 0 0.0 1.6 0.00 0.00 0.00 71 1010.2
20260904004618 28 0 0.0 1.6 0.00 0.00 0.00 70 1010.1
20260904003121 28 0 0.0 1.6 0.00 0.00 0.00 69 1010.0
20260904001601 29 0 0.0 1.6 0.00 0.00 0.00 69 1010.2
20260904000101 29 0 0.0 1.6 0.00 0.00 0.00 68 1010.3
20260903234601 30 0 0.0 1.6 0.00 0.00 0.00 67 1010.5
20260903233104 30 0 0.0 1.6 0.00 0.00 0.00 67 1010.5
20260903231606 30 79 0.0 1.6 0.00 0.00 0.00 66 1010.6
20260903230103 30 0 0.0 3.2 0.00 0.00 0.00 65 1010.7
20260903224557 30 0 0.0 3.2 0.00 0.00 0.00 64 1010.5
20260903223114 31 68 1.6 3.2 0.00 0.00 0.00 63 1010.4
20260903221559 31 73 0.0 3.2 0.00 0.00 0.00 59 1010.6
20260903220101 32 0 0.0 1.6 0.00 0.00 0.00 59 1010.7
20260903214606 32 188 1.6 6.4 0.00 0.00 0.00 62 1010.5
20260903213105 32 165 0.0 6.4 0.00 0.00 0.00 61 1010.6
20260903211612 32 0 0.0 6.4 0.00 0.00 0.00 61 1010.8
20260903210107 32 0 0.0 4.8 0.00 0.00 0.00 61 1010.8
20260903204559 32 0 3.2 8.0 0.00 0.00 0.00 62 1010.9
20260903203101 32 196 1.6 6.4 0.00 0.00 0.00 62 1011.0
20260903201606 32 179 1.6 6.4 0.00 0.00 0.00 60 1011.1
20260903194600 31 92 0.0 4.8 0.00 0.00 0.00 60 1011.3
20260903193108 31 172 0.0 3.2 0.00 0.00 0.00 61 1011.5
20260903191558 31 0 0.0 1.6 0.00 0.00 0.00 62 1011.9
20260903190111 30 0 0.0 1.6 0.00 0.00 0.00 64 1012.0
20260903184606 30 0 0.0 3.2 0.00 0.00 0.00 66 1012.1
20260903183107 30 0 0.0 3.2 0.00 0.00 0.00 68 1012.3
20260903181558 29 60 0.0 4.8 0.00 0.00 0.00 70 1012.7
20260903180110 29 35 0.0 4.8 0.00 0.00 0.00 71 1012.8
20260903174611 29 359 0.0 6.4 0.00 0.00 0.00 70 1013.1
20260903173107 29 105 1.6 9.7 0.00 0.00 0.00 70 1013.2
20260903171606 30 276 1.6 8.0 0.00 0.00 0.00 69 1013.2
20260903164609 29 294 3.2 11.3 0.00 0.00 0.00 69 1012.9
20260903163104 29 297 1.6 9.7 0.00 0.00 0.00 68 1013.0
20260903161605 31 342 3.2 9.7 0.00 0.00 0.00 66 1012.8
20260903160111 32 0 0.0 3.2 0.00 0.00 0.00 62 1011.8
20260903154600 32 0 0.0 3.2 0.00 0.00 0.00 63 1011.7
20260903153110 31 290 0.0 3.2 0.00 0.00 0.00 64 1011.7
20260903151558 31 271 0.0 4.8 0.00 0.00 0.00 65 1011.7
20260903150058 30 281 0.0 4.8 0.00 0.00 0.00 66 1011.8
20260903144606 30 0 0.0 9.7 0.00 0.00 0.00 66 1011.9
20260903143107 30 296 0.0 4.8 0.00 0.00 0.00 67 1011.7
20260903141601 29 282 0.0 3.2 0.00 0.00 0.00 67 1011.7
20260903140100 28 0 0.0 3.2 0.00 0.00 0.00 68 1011.5
20260903134611 28 0 0.0 4.8 0.00 0.00 0.00 68 1011.6
20260903133111 27 158 0.0 3.2 0.00 0.00 0.00 69 1011.7
20260903131601 27 0 0.0 1.6 0.00 0.00 0.00 71 1011.6
20260903130129 27 0 0.0 3.2 0.00 0.00 0.00 72 1011.6
20260903124624 26 0 0.0 3.2 0.00 0.00 0.00 73 1011.6
20260903123101 26 0 0.0 3.2 0.00 0.00 0.00 73 1011.7
20260903121556 26 0 0.0 1.6 0.00 0.00 0.00 73 1011.7
20260903114600 26 0 0.0 4.8 0.00 0.00 0.00 72 1011.6
20260903113056 26 0 0.0 3.2 0.00 0.00 0.00 72 1011.5
20260903111602 26 0 0.0 1.6 0.00 0.00 0.00 72 1011.4
20260903104604 26 0 0.0 1.6 0.00 0.00 0.00 74 1011.3
20260903103059 26 139 0.0 3.2 0.00 0.00 0.00 75 1011.2
20260903101602 26 0 0.0 6.4 0.00 0.00 0.00 76 1011.2
20260903100100 26 0 0.0 1.6 0.00 0.00 0.00 77 1011.3
20260903094609 26 141 0.0 1.6 0.00 0.00 0.00 78 1011.2
20260903093059 26 0 0.0 1.6 0.00 0.00 0.00 79 1011.0
20260903091600 26 0 0.0 1.6 0.00 0.00 0.00 79 1011.1
20260903090107 26 0 0.0 3.2 0.00 0.00 0.00 79 1011.1
20260903084603 26 0 0.0 1.6 0.00 0.00 0.00 79 1011.0
20260903083114 26 0 0.0 3.2 0.00 0.00 0.00 79 1011.1
20260903081620 26 0 0.0 1.6 0.00 0.00 0.00 79 1011.1
20260903080100 26 0 0.0 0.0 0.00 0.00 0.00 79 1011.0
20260903074610 26 160 0.0 1.6 0.00 0.00 0.00 79 1010.9
20260903073134 26 0 0.0 0.0 0.00 0.00 0.00 78 1010.9
20260903071622 26 0 0.0 0.0 0.00 0.00 0.00 78 1011.0
20260903070100 26 0 0.0 0.0 0.00 0.00 0.00 78 1011.0
20260903064603 27 0 0.0 0.0 0.00 0.00 0.00 78 1011.2
20260903063057 27 0 0.0 0.0 0.00 0.00 0.00 77 1011.2
20260903061604 27 0 0.0 0.0 0.00 0.00 0.00 77 1011.2
20260903060144 27 0 0.0 0.0 0.00 0.00 0.00 77 1011.3
20260903054558 27 0 0.0 0.0 0.00 0.00 0.00 77 1011.1
20260903053058 27 0 0.0 0.0 0.00 0.00 0.00 77 1011.1